"Platform","Muskegon M45 ReCON Buoy"
"Latitude (deg)",43.230490
"Longitude (deg)",-86.467410
"Water Depth (m)",46.6
"Sensor Device","AirLink GX450 Cell Modem Radio"
"Sensor Type","GPS Latitude: Offset from initial deployment position"
"Sensor Units","meters north"
"Measurement","A sample"
"Time means","Time at sample (UTC time zone)"

"Note:","This data was collected for research purposes."
"Note:","Minimal quality checking has been performed so data may contain known or unknown errors."
"Note:","Data provided by NOAA. Please credit NOAA."
"Note:","For more info see www.glerl.noaa.gov/res/recon"

"Time (UTC)","North"
"YYYY/MM/DD HH:MM","m"
2020/08/06 14:02, 1.1
2020/08/06 14:12, 1.1
2020/08/06 14:37, 2.2
2020/08/06 15:12, 3.3
2020/08/06 15:37, 3.3
2020/08/06 16:12, 4.4
2020/08/06 16:37, 3.3
2020/08/06 17:11, 3.3
2020/08/06 17:37, 5.6
2020/08/06 18:12, 3.3
2020/08/06 18:37, 1.1
2020/08/06 19:12, 2.2
2020/08/06 19:37, 3.3
2020/08/06 20:12, 2.2
2020/08/06 20:37, 4.4
2020/08/06 21:12, 0.0
2020/08/06 21:37, 3.3
2020/08/06 22:12, 5.6
2020/08/06 22:37, 2.2
2020/08/06 23:12, 1.1
2020/08/06 23:39, 2.2
2020/08/07 00:12, 4.4
2020/08/07 00:38, 1.1
2020/08/07 01:12, 1.1
2020/08/07 01:39, 2.2
2020/08/07 02:12, 3.3
2020/08/07 02:37, 4.4
2020/08/07 03:11, 6.7
2020/08/07 03:38, 5.6
2020/08/07 04:17, 5.6
2020/08/07 04:37, 5.6
2020/08/07 05:12, 5.6
2020/08/07 05:37, 6.7
2020/08/07 06:17, 3.3
2020/08/07 06:37, 4.4
2020/08/07 07:12, 5.6
2020/08/07 07:37, 4.4
2020/08/07 08:12, 4.4
2020/08/07 08:37, 4.4
2020/08/07 09:11, 3.3
2020/08/07 09:37, 4.4
2020/08/07 10:12, 4.4
2020/08/07 10:37, 3.3
2020/08/07 11:12, 5.6
2020/08/07 11:37, 4.4
2020/08/07 12:12, 3.3
2020/08/07 12:37, 5.6
2020/08/07 13:38, 6.7
2020/08/07 14:14, 7.8
2020/08/07 14:37, 7.8
2020/08/07 15:12, 5.6
2020/08/07 16:12, 1.1
2020/08/07 16:37, 0.0
2020/08/07 17:11, 0.0
2020/08/07 17:37, 2.2
2020/08/07 18:12, 2.2
2020/08/07 18:37, 1.1
2020/08/07 19:12, 1.1
2020/08/07 19:37, 2.2
2020/08/07 20:12, 1.1
2020/08/07 20:38, 3.3
2020/08/07 21:12, 1.1
2020/08/07 21:37, 3.3
2020/08/07 22:12, 4.4
2020/08/07 22:37, 2.2
2020/08/07 23:12, 2.2
2020/08/07 23:37, 1.1
2020/08/08 00:12, 1.1
2020/08/08 00:37, 1.1
2020/08/08 05:19, 4.4
2020/08/08 05:38, 4.4
2020/08/08 06:12, 4.4
2020/08/08 06:37, 4.4
2020/08/08 07:12, 5.6
2020/08/08 07:37, 5.6
2020/08/08 08:12, 6.7
2020/08/08 08:37, 6.7
2020/08/08 09:12, 7.8
2020/08/08 09:37, 8.9
2020/08/08 10:12, 7.8
2020/08/08 10:37, 7.8
2020/08/08 11:11, 5.6
2020/08/08 11:37, 6.7
2020/08/08 12:12, 4.4
2020/08/08 12:40, 6.7
2020/08/08 13:15, 5.6
2020/08/08 13:39, 5.6
2020/08/08 14:14, 6.7
2020/08/08 14:39, 5.6
2020/08/08 15:12, 4.4
2020/08/08 15:39, 4.4
2020/08/08 16:14, 2.2
2020/08/08 16:39, 3.3
2020/08/08 17:12, 3.3
2020/08/08 17:37, 4.4
2020/08/08 18:12, 3.3
2020/08/08 18:39, 4.4
2020/08/08 19:13, 6.7
2020/08/08 19:39, 5.6
2020/08/08 20:14, 6.7
2020/08/08 20:39, 7.8
2020/08/08 21:12, 10.0
2020/08/08 21:37, 12.2
2020/08/08 22:14, 11.1
2020/08/08 22:40, 10.0
2020/08/08 23:15, 10.0
2020/08/08 23:40, 6.7
2020/08/09 00:13, 6.7
2020/08/09 00:39, 6.7
2020/08/09 01:14, 4.4
2020/08/09 01:40, 4.4
2020/08/09 02:13, 5.6
2020/08/09 02:39, 6.7
2020/08/09 03:14, 6.7
2020/08/09 03:39, 5.6
2020/08/09 04:14, 7.8
2020/08/09 04:39, 4.4
2020/08/09 05:12, 3.3
2020/08/09 05:37, 2.2
2020/08/09 06:12, 3.3
2020/08/09 06:37, 7.8
2020/08/09 07:11, 7.8
2020/08/09 07:37, 4.4
2020/08/09 08:12, 4.4
2020/08/09 08:37, 6.7
2020/08/09 09:12, 7.8
2020/08/09 09:37, 8.9
2020/08/09 10:12, 4.4
2020/08/09 10:37, 5.6
2020/08/09 11:12, 5.6
2020/08/09 11:37, 6.7
2020/08/09 12:12, 5.6
2020/08/09 12:37, 7.8
2020/08/09 13:12, 6.7
2020/08/09 13:37, 6.7
2020/08/09 14:12, 7.8
2020/08/09 14:39, 5.6
2020/08/09 15:38, 2.2
2020/08/09 16:12, 0.0
2020/08/09 16:37, 0.0
2020/08/09 17:12, 1.1
2020/08/09 17:37, 3.3
2020/08/09 18:12, 3.3
2020/08/09 18:37, 2.2
2020/08/09 19:12, 6.7
2020/08/09 19:38, 3.3
2020/08/09 20:12, 2.2
2020/08/09 21:14, 3.3
2020/08/09 21:38, 6.7
2020/08/09 22:12, 6.7
2020/08/09 22:38, 5.6
2020/08/09 23:12, 6.7
2020/08/09 23:37, 5.6
2020/08/10 00:12, 4.4
2020/08/10 00:37, 6.7
2020/08/10 01:13, 7.8
2020/08/10 01:39, 8.9
2020/08/10 02:12, 7.8
2020/08/10 02:37, 8.9
2020/08/10 03:11, 6.7
2020/08/10 03:37, 10.0
2020/08/10 04:12, 5.6
2020/08/10 04:37, 5.6
2020/08/10 05:12, 5.6
2020/08/10 05:37, 6.7
2020/08/10 06:12, 3.3
2020/08/10 07:13, 4.4
2020/08/10 07:37, 4.4
2020/08/10 08:11, 6.7
2020/08/10 08:37, 7.8
2020/08/10 09:11, 8.9
2020/08/10 09:37, 8.9
2020/08/10 10:12, 7.8
2020/08/10 10:37, 7.8
2020/08/10 11:11, 11.1
2020/08/10 11:37, 11.1
2020/08/10 12:12, 6.7
2020/08/10 12:37, 10.0
2020/08/10 13:12, 8.9
2020/08/10 13:37, 8.9
2020/08/10 14:12, 8.9
2020/08/10 14:37, 6.7
2020/08/10 15:12, 4.4
2020/08/10 15:37, 3.3
2020/08/10 16:12, 1.1
2020/08/10 16:37, 2.2
2020/08/10 17:12, 4.4
2020/08/10 17:37, 3.3
2020/08/10 18:12, 3.3
2020/08/10 18:37, 1.1
2020/08/10 19:12, 3.3
2020/08/10 19:37, 4.4
2020/08/10 20:12, 3.3
2020/08/10 20:37, 5.6
2020/08/10 21:12, 3.3
2020/08/10 21:37, 4.4
2020/08/10 22:12, 6.7
2020/08/10 22:38, 4.4
2020/08/10 23:12, 2.2
2020/08/10 23:37, 5.6
2020/08/11 00:11, 1.1
2020/08/11 01:38, 1.1
2020/08/11 02:12, 6.7
2020/08/11 02:37, 5.6
2020/08/11 03:12, 6.7
2020/08/11 03:37, 5.6
2020/08/11 04:11, 5.6
2020/08/11 04:37, 3.3
2020/08/11 05:12, 4.4
2020/08/11 05:37, 3.3
2020/08/11 06:12, 3.3
2020/08/11 06:37, 1.1
2020/08/11 07:11, 2.2
2020/08/11 07:37, 3.3
2020/08/11 08:11, 0.0
2020/08/11 08:37, 2.2
2020/08/11 09:11, -1.1
2020/08/11 09:37, 0.0
2020/08/11 10:11, 0.0
2020/08/11 10:37, -1.1
2020/08/11 11:12, 1.1
2020/08/11 11:37, 3.3
2020/08/11 12:12, 4.4
2020/08/11 12:37, 4.4
2020/08/11 13:12, 3.3
2020/08/11 13:37, 0.0
2020/08/11 14:12, 3.3
2020/08/11 14:37, 3.3
2020/08/11 15:12, 3.3
2020/08/11 15:37, 2.2
2020/08/11 16:12, -1.1
2020/08/11 16:37, 0.0
2020/08/11 17:11, 2.2
2020/08/11 17:37, 2.2
2020/08/11 18:12, -1.1
2020/08/11 18:37, -2.2
2020/08/11 19:11, 2.2
2020/08/11 19:37, 1.1
2020/08/11 20:12, 2.2
2020/08/11 20:37, 4.4
2020/08/11 21:12, 2.2
2020/08/11 21:37, 3.3
2020/08/11 22:12, 1.1
2020/08/11 22:37, 2.2
2020/08/12 00:13, 1.1
2020/08/12 00:37, 1.1
2020/08/12 01:37, 4.4
2020/08/12 02:11, 5.6
2020/08/12 02:37, 5.6
2020/08/12 03:11, 6.7
2020/08/12 03:37, 3.3
2020/08/12 05:12, 4.4
2020/08/12 13:54, 3.3
2020/08/12 14:16, 5.6
2020/08/12 14:37, 5.6
2020/08/12 15:12, 6.7
2020/08/12 15:37, 8.9
2020/08/12 16:38, 4.4
2020/08/12 17:13, 6.7
2020/08/12 17:37, 7.8
2020/08/12 18:12, 4.4
2020/08/12 18:38, 2.2
2020/08/12 21:12, 2.2
2020/08/12 21:37, 3.3
2020/08/12 22:13, 2.2
2020/08/12 22:37, 2.2
2020/08/12 23:12, 2.2
2020/08/12 23:38, 2.2
2020/08/13 00:12, 2.2
2020/08/13 01:13, 4.4
2020/08/13 01:37, 3.3
2020/08/13 02:11, 5.6
2020/08/13 02:37, 2.2
2020/08/13 03:11, 2.2
2020/08/13 03:38, 4.4
2020/08/13 07:41, 3.3
2020/08/13 08:37, 4.4
2020/08/13 09:12, 3.3
2020/08/13 10:12, 2.2
2020/08/13 10:37, 3.3
2020/08/13 11:12, 2.2
2020/08/13 11:37, 2.2
2020/08/13 12:12, 5.6
2020/08/13 12:37, 4.4
2020/08/13 13:12, 5.6
2020/08/13 13:38, 2.2
2020/08/13 14:13, 4.4
2020/08/13 14:37, 4.4
2020/08/13 15:12, 2.2
2020/08/13 16:13, 0.0
2020/08/13 17:13, 3.3
2020/08/13 17:37, 2.2
2020/08/13 18:12, 1.1
2020/08/13 18:37, 0.0
2020/08/13 20:14, 1.1
2020/08/13 22:13, 2.2
2020/08/13 22:37, 1.1
2020/08/13 23:13, 2.2
2020/08/13 23:37, 2.2
2020/08/14 00:12, 2.2
2020/08/14 00:37, 1.1
2020/08/14 01:12, 1.1
2020/08/14 03:13, 6.7
2020/08/14 03:37, 4.4
2020/08/14 05:14, 2.2
2020/08/14 05:38, 0.0
2020/08/14 07:13, 2.2
2020/08/14 07:37, 2.2
2020/08/14 08:13, 3.3
2020/08/14 08:37, 2.2
2020/08/14 09:12, 4.4
2020/08/14 09:37, 3.3
2020/08/14 13:15, 3.3
2020/08/14 14:13, 4.4
2020/08/14 14:37, 3.3
2020/08/14 15:12, 3.3
2020/08/14 15:37, 4.4
2020/08/14 16:12, 1.1
2020/08/14 16:43, -1.1
2020/08/14 17:12, 0.0
2020/08/14 17:41, 0.0
2020/08/14 18:12, -1.1
2020/08/14 18:37, -1.1
2020/08/14 19:12, -2.2
2020/08/14 19:37, -1.1
2020/08/14 20:13, -1.1
2020/08/14 20:38, -2.2
2020/08/14 21:12, 0.0
2020/08/14 21:37, 0.0
2020/08/14 22:38, 0.0
2020/08/14 23:12, 0.0
2020/08/14 23:37, 0.0
2020/08/15 00:12, 0.0
2020/08/15 00:37, 2.2
2020/08/15 01:12, 2.2
2020/08/15 01:37, 3.3
2020/08/15 02:12, 3.3
2020/08/15 02:37, 4.4
2020/08/15 03:12, 5.6
2020/08/15 03:37, 3.3
2020/08/15 04:12, 3.3
2020/08/15 04:37, 4.4
2020/08/15 05:12, 4.4
2020/08/15 05:37, 4.4
2020/08/15 06:12, 6.7
2020/08/15 06:37, 4.4
2020/08/15 07:12, 4.4
2020/08/15 07:37, 4.4
2020/08/15 08:12, 4.4
2020/08/15 08:37, 5.6
2020/08/15 09:12, 4.4
2020/08/15 09:37, 4.4
2020/08/15 10:11, 4.4
2020/08/15 10:37, 4.4
2020/08/15 11:12, 4.4
2020/08/15 11:37, 4.4
2020/08/15 12:12, 5.6
2020/08/15 12:37, 4.4
2020/08/15 13:12, 8.9
2020/08/15 13:37, 5.6
2020/08/15 14:12, 6.7
2020/08/15 14:37, 3.3
2020/08/15 15:14, 1.1
2020/08/15 15:37, -2.2
2020/08/15 16:12, -1.1
2020/08/15 16:37, -2.2
2020/08/15 17:12, 1.1
2020/08/15 17:37, -2.2
2020/08/15 18:12, -4.4
2020/08/15 18:37, -2.2
2020/08/15 19:12, 1.1
2020/08/15 19:37, 0.0
2020/08/15 20:12, 1.1
2020/08/15 20:37, 0.0
2020/08/15 21:14, 3.3
2020/08/15 21:38, 1.1
2020/08/15 22:12, 1.1
2020/08/15 22:37, 1.1
2020/08/15 23:15, 2.2
2020/08/15 23:38, 1.1
2020/08/16 00:12, 0.0
2020/08/16 00:37, -2.2
2020/08/16 01:12, -1.1
2020/08/16 01:37, -1.1
2020/08/16 02:12, 2.2
2020/08/16 02:37, 0.0
2020/08/16 03:14, 1.1
2020/08/16 03:37, -1.1
2020/08/16 04:12, -1.1
2020/08/16 04:37, 1.1
2020/08/16 05:12, 0.0
2020/08/16 05:37, -1.1
2020/08/16 06:12, 2.2
2020/08/16 06:37, 1.1
2020/08/16 07:12, 4.4
2020/08/16 07:37, 0.0
2020/08/16 08:12, -2.2
2020/08/16 08:37, 0.0
2020/08/16 09:12, -2.2
2020/08/16 09:37, -2.2
2020/08/16 10:11, -4.4
2020/08/16 10:37, -2.2
2020/08/16 11:11, -2.2
2020/08/16 11:37, -5.6
2020/08/16 12:12, -1.1
2020/08/16 12:37, -4.4
2020/08/16 13:12, -2.2
2020/08/16 13:37, -1.1
2020/08/16 14:12, 0.0
2020/08/16 14:37, -2.2
2020/08/16 15:12, -4.4
2020/08/16 15:37, -6.7
2020/08/16 16:12, -3.3
2020/08/16 16:37, -2.2
2020/08/16 17:12, 0.0
2020/08/16 17:37, 0.0
2020/08/16 18:12, -3.3
2020/08/16 18:37, 0.0
2020/08/16 19:12, 3.3
2020/08/16 19:37, 0.0
2020/08/16 20:12, 1.1
2020/08/16 20:37, -1.1
2020/08/16 21:12, 2.2
2020/08/16 21:37, 0.0
2020/08/16 22:12, 1.1
2020/08/16 22:37, 1.1
2020/08/16 23:12, 1.1
2020/08/16 23:37, 2.2
2020/08/17 00:12, 1.1
2020/08/17 00:38, 2.2
2020/08/17 04:39, 4.4
2020/08/17 06:38, 2.2
2020/08/17 07:37, 0.0
2020/08/17 08:12, 0.0
2020/08/17 08:37, 2.2
2020/08/17 09:12, 0.0
2020/08/17 09:37, 1.1
2020/08/17 10:12, 1.1
2020/08/17 10:37, 0.0
2020/08/17 11:12, 1.1
2020/08/17 11:37, 0.0
2020/08/17 12:12, 2.2
2020/08/17 12:37, 3.3
2020/08/17 13:12, 2.2
2020/08/17 13:37, 2.2
2020/08/17 14:12, 0.0
2020/08/17 14:37, -3.3
2020/08/17 15:12, -3.3
2020/08/17 15:37, -2.2
2020/08/17 16:12, 0.0
2020/08/17 16:37, 4.4
2020/08/17 17:12, 6.7
2020/08/17 17:37, -1.1
2020/08/17 18:12, -2.2
2020/08/17 18:37, -1.1
2020/08/17 19:12, 2.2
2020/08/17 19:37, 0.0
2020/08/17 20:12, 1.1
2020/08/17 20:37, -1.1
2020/08/17 21:12, 0.0
2020/08/17 21:37, 1.1
2020/08/17 22:12, -2.2
2020/08/17 22:37, 0.0
2020/08/17 23:12, 0.0
2020/08/17 23:37, -2.2
2020/08/18 00:12, -1.1
2020/08/18 00:37, -2.2
2020/08/18 01:12, -1.1
2020/08/18 01:37, 0.0
2020/08/18 02:12, 1.1
2020/08/18 02:37, 1.1
2020/08/18 03:12, -1.1
2020/08/18 03:37, -2.2
2020/08/18 04:12, -3.3
2020/08/18 04:37, -3.3
2020/08/18 05:12, -4.4
2020/08/18 05:37, -5.6
2020/08/18 06:12, -1.1
2020/08/18 06:37, 0.0
2020/08/18 07:12, -4.4
2020/08/18 07:37, -3.3
2020/08/18 08:12, -2.2
2020/08/18 08:37, -3.3
2020/08/18 09:12, 0.0
2020/08/18 09:37, 0.0
2020/08/18 10:12, -2.2
2020/08/18 10:37, 1.1
2020/08/18 11:12, 2.2
2020/08/18 11:37, 0.0
2020/08/18 12:12, 0.0
2020/08/18 12:37, 1.1
2020/08/18 13:12, -1.1
2020/08/18 13:37, 2.2
2020/08/18 14:12, 2.2
2020/08/18 14:37, 1.1
2020/08/18 15:12, -1.1
2020/08/18 15:37, -2.2
2020/08/18 16:12, -4.4
2020/08/18 16:37, -4.4
2020/08/18 17:12, -1.1
2020/08/18 17:37, -4.4
2020/08/18 18:12, -5.6
2020/08/18 18:37, -4.4
2020/08/18 19:12, -3.3
2020/08/18 19:37, -5.6
2020/08/18 20:12, -5.6
2020/08/18 20:37, -4.4
2020/08/18 21:12, -4.4
2020/08/18 21:37, -2.2
2020/08/18 22:12, -5.6
2020/08/18 22:37, -6.7
2020/08/18 23:12, -6.7
2020/08/18 23:37, -8.9
2020/08/19 00:12, -7.8
2020/08/19 00:37, -6.7
2020/08/19 01:12, -3.3
2020/08/19 01:37, 0.0
2020/08/19 02:13, 1.1
2020/08/19 02:37, 2.2
2020/08/19 03:12, -2.2
2020/08/19 03:37, -1.1
2020/08/19 04:12, 1.1
2020/08/19 04:37, 0.0
2020/08/19 05:12, 0.0
2020/08/19 05:37, 0.0
2020/08/19 06:12, 1.1
2020/08/19 06:37, 2.2
2020/08/19 07:12, 2.2
2020/08/19 07:37, 1.1
2020/08/19 08:12, 0.0
2020/08/19 08:37, 0.0
2020/08/19 09:12, 0.0
2020/08/19 09:37, 0.0
2020/08/19 10:12, -2.2
2020/08/19 10:37, -2.2
2020/08/19 11:12, -1.1
2020/08/19 11:37, -1.1
2020/08/19 12:11, -3.3
2020/08/19 12:37, -2.2
2020/08/19 13:12, -4.4
2020/08/19 13:37, -1.1
2020/08/19 14:12, -2.2
2020/08/19 14:37, -3.3
2020/08/19 15:12, -3.3
2020/08/19 15:37, -5.6
2020/08/19 16:12, -5.6
2020/08/19 16:37, -4.4
2020/08/19 17:12, -1.1
2020/08/19 17:37, -3.3
2020/08/19 18:12, -2.2
2020/08/19 18:37, -1.1
2020/08/19 19:13, 1.1
2020/08/19 19:37, 1.1
2020/08/19 20:12, 1.1
2020/08/19 20:37, 3.3
2020/08/19 21:12, 3.3
2020/08/19 21:38, 5.6
2020/08/19 22:12, 3.3
2020/08/19 22:37, 3.3
2020/08/19 23:12, 3.3
2020/08/19 23:37, 3.3
2020/08/20 00:12, 3.3
2020/08/20 01:12, 3.3
2020/08/20 01:37, 3.3
2020/08/20 02:12, 5.6
2020/08/20 02:37, 5.6
2020/08/20 03:39, 2.2
2020/08/20 05:13, 1.1
2020/08/20 06:12, 2.2
2020/08/20 08:13, 1.1
2020/08/20 09:12, 2.2
2020/08/20 10:37, 3.3
2020/08/20 11:37, 4.4
2020/08/20 12:12, 2.2
2020/08/20 12:37, 4.4
2020/08/20 13:12, 3.3
2020/08/20 13:38, 5.6
2020/08/20 14:12, 4.4
2020/08/20 14:37, 4.4
2020/08/20 15:12, 1.1
2020/08/20 15:38, 0.0
2020/08/20 16:12, 2.2
2020/08/20 17:14, -2.2
2020/08/20 17:38, 0.0
2020/08/20 18:12, -1.1
2020/08/20 18:38, 2.2
2020/08/20 19:13, 0.0
2020/08/20 19:38, 1.1
2020/08/20 20:13, 0.0
2020/08/20 20:38, 4.4
2020/08/20 21:13, 2.2
2020/08/20 21:38, 3.3
2020/08/20 22:12, 3.3
2020/08/20 22:37, 3.3
2020/08/20 23:12, 4.4
2020/08/20 23:37, 6.7
2020/08/21 00:12, 2.2
2020/08/21 00:37, 4.4
2020/08/21 01:12, 4.4
2020/08/21 02:12, 5.6
2020/08/21 02:37, 6.7
2020/08/21 03:12, 4.4
2020/08/21 03:37, 2.2
2020/08/21 04:38, 1.1
2020/08/21 05:12, 2.2
2020/08/21 05:37, 1.1
2020/08/21 06:12, 1.1
2020/08/21 06:37, 2.2
2020/08/21 07:12, 0.0
2020/08/21 07:37, 1.1
2020/08/21 08:12, 2.2
2020/08/21 08:37, 1.1
2020/08/21 09:12, 1.1
2020/08/21 09:37, 2.2
2020/08/21 10:12, -1.1
2020/08/21 10:37, 1.1
2020/08/21 11:13, 2.2
2020/08/21 11:37, 1.1
2020/08/21 12:15, 1.1
2020/08/21 12:37, 4.4
2020/08/21 13:12, 1.1
2020/08/21 13:37, 2.2
2020/08/21 14:12, 2.2
2020/08/21 14:37, 2.2
2020/08/21 15:12, 0.0
2020/08/21 15:38, -2.2
2020/08/21 16:12, -1.1
2020/08/21 16:38, 1.1
2020/08/21 17:12, 1.1
2020/08/21 17:38, 1.1
2020/08/21 18:12, 0.0
2020/08/21 18:38, 2.2
2020/08/21 19:13, 1.1
2020/08/21 19:39, 1.1
2020/08/21 20:12, 1.1
2020/08/21 20:38, 3.3
2020/08/21 21:13, 5.6
2020/08/21 21:38, 3.3
2020/08/21 22:13, 1.1
2020/08/21 22:39, 2.2
2020/08/21 23:14, 4.4
2020/08/21 23:39, 2.2
2020/08/22 00:13, 1.1
2020/08/22 00:38, 1.1
2020/08/22 01:14, 2.2
2020/08/22 01:39, 5.6
2020/08/22 02:13, 5.6
2020/08/22 02:38, 4.4
2020/08/22 03:13, 3.3
2020/08/22 03:38, 3.3
2020/08/22 04:13, 4.4
2020/08/22 05:38, 3.3
2020/08/22 06:12, 4.4
2020/08/22 06:38, 4.4
2020/08/22 07:12, 3.3
2020/08/22 07:38, 4.4
2020/08/22 08:12, 5.6
2020/08/22 08:37, 4.4
2020/08/22 09:12, 3.3
2020/08/22 09:37, 3.3
2020/08/22 10:12, 3.3
2020/08/22 10:37, 4.4
2020/08/22 11:12, 1.1
2020/08/22 12:39, 5.6
2020/08/22 13:13, 2.2
2020/08/22 14:14, 3.3
2020/08/22 14:38, 2.2
2020/08/22 15:13, -1.1
2020/08/22 15:38, 1.1
2020/08/22 16:13, 0.0
2020/08/22 16:38, 1.1
2020/08/22 17:13, 1.1
2020/08/22 17:38, 1.1
2020/08/22 18:13, 4.4
2020/08/22 18:38, 4.4
2020/08/22 19:12, 3.3
2020/08/22 19:38, 4.4
2020/08/22 20:13, 2.2
2020/08/22 20:38, 4.4
2020/08/22 21:13, 4.4
2020/08/22 21:38, 4.4
2020/08/22 22:13, 3.3
2020/08/22 22:38, 3.3
2020/08/22 23:13, 5.6
2020/08/22 23:38, 3.3
2020/08/23 00:13, 4.4
2020/08/23 00:37, 3.3
2020/08/23 01:12, 4.4
2020/08/23 01:37, 4.4
2020/08/23 02:12, 4.4
2020/08/23 02:37, 5.6
2020/08/23 03:12, 3.3
2020/08/23 03:37, 4.4
2020/08/23 06:18, 2.2
2020/08/23 07:21, 1.1
2020/08/23 07:37, 2.2
2020/08/23 08:12, 1.1
2020/08/23 08:37, 3.3
2020/08/23 09:12, 4.4
2020/08/23 09:38, 1.1
2020/08/23 10:12, 3.3
2020/08/23 10:37, 4.4
2020/08/23 11:12, 2.2
2020/08/23 11:38, 5.6
2020/08/23 12:12, 4.4
2020/08/23 12:37, 5.6
2020/08/23 13:12, 5.6
2020/08/23 13:38, 5.6
2020/08/23 14:13, 4.4
2020/08/23 14:38, 4.4
2020/08/23 15:12, 1.1
2020/08/23 15:37, 1.1
2020/08/23 16:12, 1.1
2020/08/23 16:37, 3.3
2020/08/23 17:12, 3.3
2020/08/23 17:37, 1.1
2020/08/23 18:12, 4.4
2020/08/23 18:37, 4.4
2020/08/23 19:12, 2.2
2020/08/23 19:37, 1.1
2020/08/23 20:12, 3.3
2020/08/23 20:37, 3.3
2020/08/23 21:12, 4.4
2020/08/23 21:38, 4.4
2020/08/23 22:12, 3.3
2020/08/23 22:37, 2.2
2020/08/23 23:12, 3.3
2020/08/23 23:39, 2.2
2020/08/24 00:12, 2.2
2020/08/24 00:37, 4.4
2020/08/24 01:12, 4.4
2020/08/24 01:37, 6.7
2020/08/24 02:12, 5.6
2020/08/24 02:37, 4.4
2020/08/24 03:11, 5.6
2020/08/24 03:37, 4.4
2020/08/24 04:12, 5.6
2020/08/24 04:37, 4.4
2020/08/24 05:13, 5.6
2020/08/24 06:12, 5.6
2020/08/24 06:37, 5.6
2020/08/24 07:12, 3.3
2020/08/24 07:37, 3.3
2020/08/24 08:12, 6.7
2020/08/24 08:37, 6.7
2020/08/24 09:11, 4.4
2020/08/24 09:38, 2.2
2020/08/24 10:12, 3.3
2020/08/24 10:37, 4.4
2020/08/24 11:12, 3.3
2020/08/24 11:38, 4.4
2020/08/24 12:12, 2.2
2020/08/24 12:38, 3.3
2020/08/24 13:12, 2.2
2020/08/24 13:38, 2.2
2020/08/24 14:16, 4.4
2020/08/24 14:38, 2.2
2020/08/24 15:12, -1.1
2020/08/24 15:37, 0.0
2020/08/24 16:38, 0.0
2020/08/24 17:12, 0.0
2020/08/24 17:37, 0.0
2020/08/24 18:12, 2.2
2020/08/24 18:40, 4.4
2020/08/24 19:12, 1.1
2020/08/24 19:38, 2.2
2020/08/24 20:08, 3.3
2020/08/24 20:36, 3.3
2020/08/24 21:06, 4.4
2020/08/24 21:36, 3.3
2020/08/24 22:06, 2.2
2020/08/24 22:36, 3.3
2020/08/24 23:06, 2.2
2020/08/24 23:36, 3.3
2020/08/25 00:08, 0.0
2020/08/25 01:37, 5.6
2020/08/25 02:06, 5.6
2020/08/25 02:36, 6.7
2020/08/25 03:06, 4.4
2020/08/25 03:36, 3.3
2020/08/25 05:07, 3.3
2020/08/25 05:37, 2.2
2020/08/25 06:06, 4.4
2020/08/25 06:36, 3.3
2020/08/25 07:06, 1.1
2020/08/25 07:37, 1.1
2020/08/25 08:06, 0.0
2020/08/25 08:36, 1.1
2020/08/25 09:06, 0.0
2020/08/25 09:36, -1.1
2020/08/25 10:08, -2.2
2020/08/25 10:36, -1.1
2020/08/25 11:06, -1.1
2020/08/25 11:36, 0.0
2020/08/25 12:06, 1.1
2020/08/25 13:07, -1.1
2020/08/25 13:36, 1.1
2020/08/25 14:06, 1.1
2020/08/25 14:36, 0.0
2020/08/25 15:06, -2.2
2020/08/25 15:36, -3.3
2020/08/25 16:07, -3.3
2020/08/25 16:38, 1.1
2020/08/25 18:07, 0.0
2020/08/25 18:37, 2.2
2020/08/25 19:08, 1.1
2020/08/25 19:37, 1.1
2020/08/25 20:08, 1.1
2020/08/25 20:37, 2.2
2020/08/25 21:07, 5.6
2020/08/25 21:36, 4.4
2020/08/25 22:06, 3.3
2020/08/25 22:36, 4.4
2020/08/25 23:07, 2.2
2020/08/25 23:37, 2.2
2020/08/26 01:07, 3.3
2020/08/26 01:37, 3.3
2020/08/26 02:37, 2.2
2020/08/26 03:07, 2.2
2020/08/26 04:07, 4.4
2020/08/26 04:37, 1.1
2020/08/26 05:07, 0.0
2020/08/26 05:37, 1.1
2020/08/26 06:07, 1.1
2020/08/26 06:37, 3.3
2020/08/26 07:06, 3.3
2020/08/26 07:37, 3.3
2020/08/26 08:06, 4.4
2020/08/26 08:36, 3.3
2020/08/26 09:07, 5.6
2020/08/26 09:36, 1.1
2020/08/26 10:08, 2.2
2020/08/26 10:37, 1.1
2020/08/26 11:07, 4.4
2020/08/26 11:37, 5.6
2020/08/26 12:07, 4.4
2020/08/26 12:37, 1.1
2020/08/26 13:07, 4.4
2020/08/26 13:36, 3.3
2020/08/26 14:07, 5.6
2020/08/26 14:37, 2.2
2020/08/26 15:07, 1.1
2020/08/26 15:37, 1.1
2020/08/26 16:07, 3.3
2020/08/26 16:37, 4.4
2020/08/26 17:07, 3.3
2020/08/26 17:37, 3.3
2020/08/26 18:07, 3.3
2020/08/26 18:37, 6.7
2020/08/26 19:07, 5.6
2020/08/26 19:38, 5.6
2020/08/26 20:08, 5.6
2020/08/26 20:38, 5.6
2020/08/26 21:08, 7.8
2020/08/26 21:38, 6.7
2020/08/26 22:08, 5.6
2020/08/26 22:38, 6.7
2020/08/26 23:08, 3.3
2020/08/26 23:38, 6.7
2020/08/27 00:08, 4.4
2020/08/27 00:38, 5.6
2020/08/27 01:08, 6.7
2020/08/27 01:38, 7.8
2020/08/27 02:08, 7.8
2020/08/27 02:39, 5.6
2020/08/27 03:08, 5.6
2020/08/27 03:38, 6.7
2020/08/27 04:08, 6.7
2020/08/27 04:38, 5.6
2020/08/27 05:08, 6.7
2020/08/27 05:38, 8.9
2020/08/27 06:08, 6.7
2020/08/27 06:38, 5.6
2020/08/27 07:08, 6.7
2020/08/27 07:38, 6.7
2020/08/27 08:08, 8.9
2020/08/27 08:38, 7.8
2020/08/27 09:08, 5.6
2020/08/27 09:38, 6.7
2020/08/27 10:08, 6.7
2020/08/27 10:38, 5.6
2020/08/27 11:08, 4.4
2020/08/27 11:38, 6.7
2020/08/27 12:08, 4.4
2020/08/27 12:38, -1.1
2020/08/27 13:08, 2.2
2020/08/27 13:38, 3.3
2020/08/27 14:08, 5.6
2020/08/27 14:38, 1.1
2020/08/27 15:08, -1.1
2020/08/27 15:38, -1.1
2020/08/27 16:08, 1.1
2020/08/27 16:39, 1.1
2020/08/27 17:08, 1.1
2020/08/27 17:38, -2.2
2020/08/27 18:08, -1.1
2020/08/27 18:38, -1.1
2020/08/27 19:08, 2.2
2020/08/27 19:38, 0.0
2020/08/27 20:08, 1.1
2020/08/27 20:39, 3.3
2020/08/27 21:09, -2.2
2020/08/27 21:38, -1.1
2020/08/27 22:08, -2.2
2020/08/27 22:38, 2.2
2020/08/27 23:09, 4.4
2020/08/27 23:38, 1.1
2020/08/28 00:08, -1.1
2020/08/28 00:39, -1.1
2020/08/28 01:09, 4.4
2020/08/28 02:09, 2.2
2020/08/28 02:39, 0.0
2020/08/28 03:09, 1.1
2020/08/28 03:40, 2.2
2020/08/28 04:39, -1.1
2020/08/28 05:08, -2.2
2020/08/28 05:39, -1.1
2020/08/28 06:08, -2.2
2020/08/28 06:39, -1.1
2020/08/28 07:09, 0.0
2020/08/28 08:09, 1.1
2020/08/28 08:40, 1.1
2020/08/28 09:08, 2.2
2020/08/28 09:38, -2.2
2020/08/28 10:09, 1.1
2020/08/28 10:39, 0.0
2020/08/28 11:09, -1.1
2020/08/28 12:09, 3.3
2020/08/28 12:39, 3.3
2020/08/28 13:09, 3.3
2020/08/28 13:39, 5.6
2020/08/28 14:09, 3.3
2020/08/28 15:08, 2.2
2020/08/28 15:37, 4.4
2020/08/28 16:07, 6.7
2020/08/28 16:39, 6.7
2020/08/28 17:09, 3.3
2020/08/28 17:39, 3.3
2020/08/28 18:09, 1.1
2020/08/28 18:39, 3.3
2020/08/28 19:09, 1.1
2020/08/28 19:39, -3.3
2020/08/28 20:09, 3.3
2020/08/28 20:39, 5.6
2020/08/28 21:09, 3.3
2020/08/28 21:39, 4.4
2020/08/28 22:09, 5.6
2020/08/28 22:39, 5.6
2020/08/28 23:09, 4.4
2020/08/28 23:39, 4.4
2020/08/29 00:09, 4.4
2020/08/29 00:41, 7.8
2020/08/29 01:09, 7.8
2020/08/29 01:39, 8.9
2020/08/29 02:09, 11.1
2020/08/29 02:39, 3.3
2020/08/29 03:09, 4.4
2020/08/29 03:39, 5.6
2020/08/29 04:09, 6.7
2020/08/29 04:39, 1.1
2020/08/29 05:09, 1.1
2020/08/29 05:39, 1.1
2020/08/29 06:09, 2.2
2020/08/29 06:39, 1.1
2020/08/29 07:09, 2.2
2020/08/29 07:39, -1.1
2020/08/29 08:09, -3.3
2020/08/29 08:39, -5.6
2020/08/29 09:09, -4.4
2020/08/29 09:39, -5.6
2020/08/29 10:09, -5.6
2020/08/29 10:39, -5.6
2020/08/29 11:09, -2.2
2020/08/29 11:39, -4.4
2020/08/29 12:09, -1.1
2020/08/29 12:39, -7.8
2020/08/29 13:09, -3.3
2020/08/29 13:39, 2.2
2020/08/29 14:09, -4.4
2020/08/29 14:39, -3.3
2020/08/29 15:11, -6.7
2020/08/29 15:40, -5.6
2020/08/29 16:10, -5.6
2020/08/29 16:39, -7.8
2020/08/29 17:09, -7.8
2020/08/29 17:39, -4.4
2020/08/29 18:11, -1.1
2020/08/29 18:41, 0.0
2020/08/29 19:11, 2.2
2020/08/29 19:41, -3.3
2020/08/29 20:11, 1.1
2020/08/29 20:41, 3.3
2020/08/29 21:11, 2.2
2020/08/29 21:39, 1.1
2020/08/29 22:11, 1.1
2020/08/29 22:41, 0.0
2020/08/29 23:10, -2.2
2020/08/29 23:41, -4.4
2020/08/30 00:11, -3.3
2020/08/30 00:42, -6.7
2020/08/30 01:11, -3.3
2020/08/30 01:40, -3.3
2020/08/30 02:09, -2.2
2020/08/30 02:39, -5.6
2020/08/30 03:09, -6.7
2020/08/30 03:39, -5.6